Location: Newark
(44.9333°N, 0.5667°E)
Time: 12:39:46
(UTC+00:00)

UWE-3 - Pass Details

Date: 23 February 2020
Orbit: 585 x 683 km, 97.6° (Epoch: 05 April)

Event Time Altitude Azimuth Distance (km) Brightness Sun altitude
Rises 04:17:27 0° 29° (NNE) 3,040 ? -27.1°
Reaches altitude 10° 04:20:27 10° 50° (NE) 2,128 ? -26.6°
Maximum altitude 04:23:28 17° 90° (E) 1,709 ? -26.0°
Drops below altitude 10° 04:26:28 10° 131° (SE) 2,123 ? -25.5°
Sets 04:29:27 0° 151° (SSE) 3,030 ? -25.0°
